| time (UTC) | temp C | wind direction | speed KPH | gust KPH | rain 1hr cm | rain 24hr cm | rain mn cm | humidity % | barometer mb |
| 20260906041535 | 16 | 108 | 0.0 | 0.0 | 0.00 | 0.18 | 0.00 | 93 | 1014.4 |
| 20260906040020 | 16 | 117 | 0.0 | 1.6 | 0.00 | 0.18 | 0.00 | 93 | 1014.4 |
| 20260906034526 | 16 | 117 | 0.0 | 1.6 | 0.13 | 0.18 | 0.18 | 93 | 1014.2 |
| 20260906033030 | 16 | 117 | 0.0 | 1.6 | 0.13 | 0.18 | 0.18 | 92 | 1014.2 |
| 20260906031509 | 16 | 117 | 0.0 | 1.6 | 0.13 | 0.18 | 0.18 | 92 | 1014.0 |
| 20260906030008 | 17 | 265 | 0.0 | 1.6 | 0.13 | 0.18 | 0.18 | 90 | 1014.2 |
| 20260906024509 | 17 | 266 | 0.0 | 1.6 | 0.00 | 0.05 | 0.05 | 87 | 1014.0 |
| 20260906023004 | 17 | 55 | 0.0 | 1.6 | 0.00 | 0.05 | 0.05 | 86 | 1013.8 |
| 20260906021508 | 17 | 113 | 0.0 | 1.6 | 0.00 | 0.05 | 0.05 | 86 | 1013.9 |
| 20260906020011 | 17 | 87 | 0.0 | 4.8 | 0.00 | 0.05 | 0.05 | 86 | 1013.8 |
| 20260906014512 | 17 | 110 | 3.2 | 8.0 | 0.00 | 0.05 | 0.05 | 87 | 1013.6 |
| 20260906013010 | 17 | 105 | 0.0 | 3.2 | 0.00 | 0.05 | 0.05 | 88 | 1013.6 |
| 20260906011505 | 18 | 89 | 0.0 | 6.4 | 0.00 | 0.05 | 0.05 | 88 | 1013.6 |
| 20260906010010 | 18 | 116 | 3.2 | 4.8 | 0.00 | 0.05 | 0.05 | 88 | 1013.5 |
| 20260906004512 | 18 | 102 | 1.6 | 4.8 | 0.00 | 0.05 | 0.05 | 87 | 1013.3 |
| 20260906003012 | 18 | 112 | 0.0 | 3.2 | 0.00 | 0.05 | 0.05 | 87 | 1013.0 |
| 20260906001512 | 18 | 79 | 1.6 | 4.8 | 0.00 | 0.05 | 0.05 | 87 | 1012.8 |
| 20260906000026 | 18 | 104 | 0.0 | 3.2 | 0.00 | 0.05 | 0.05 | 88 | 1012.6 |
| 20260905234509 | 18 | 99 | 1.6 | 4.8 | 0.00 | 0.05 | 0.05 | 87 | 1012.5 |
| 20260905233013 | 18 | 72 | 1.6 | 4.8 | 0.00 | 0.05 | 0.05 | 91 | 1012.2 |
| 20260905231504 | 18 | 100 | 0.0 | 1.6 | 0.03 | 0.05 | 0.05 | 89 | 1012.0 |
| 20260905230003 | 18 | 111 | 0.0 | 4.8 | 0.03 | 0.05 | 0.05 | 87 | 1012.0 |
| 20260905224508 | 19 | 66 | 0.0 | 1.6 | 0.05 | 0.05 | 0.05 | 83 | 1012.0 |
| 20260905223016 | 20 | 348 | 4.8 | 11.3 | 0.05 | 0.05 | 0.05 | 78 | 1012.0 |
| 20260905221519 | 21 | 113 | 0.0 | 9.7 | 0.03 | 0.03 | 0.03 | 79 | 1011.8 |
| 20260905220004 | 21 | 172 | 0.0 | 3.2 | 0.03 | 0.03 | 0.03 | 79 | 1011.7 |
| 20260905214508 | 22 | 84 | 1.6 | 4.8 | 0.00 | 0.00 | 0.00 | 71 | 1011.5 |
| 20260905213011 | 22 | 95 | 3.2 | 9.7 | 0.00 | 0.00 | 0.00 | 69 | 1011.3 |
| 20260905211516 | 23 | 118 | 3.2 | 14.5 | 0.00 | 0.00 | 0.00 | 68 | 1011.2 |
| 20260905210022 | 23 | 67 | 4.8 | 20.9 | 0.00 | 0.00 | 0.00 | 66 | 1011.0 |
| 20260905204504 | 24 | 131 | 4.8 | 11.3 | 0.00 | 0.00 | 0.00 | 60 | 1011.0 |
| 20260905203006 | 23 | 67 | 4.8 | 11.3 | 0.00 | 0.00 | 0.00 | 62 | 1011.0 |
| 20260905201514 | 23 | 353 | 4.8 | 9.7 | 0.00 | 0.00 | 0.00 | 60 | 1010.8 |
| 20260905200026 | 23 | 333 | 1.6 | 8.0 | 0.00 | 0.00 | 0.00 | 59 | 1010.6 |
| 20260905194524 | 24 | 333 | 6.4 | 12.9 | 0.00 | 0.00 | 0.00 | 56 | 1010.7 |
| 20260905193020 | 23 | 75 | 3.2 | 9.7 | 0.00 | 0.00 | 0.00 | 58 | 1010.7 |
| 20260905191510 | 23 | 68 | 3.2 | 8.0 | 0.00 | 0.00 | 0.00 | 59 | 1010.6 |
| 20260905190016 | 24 | 91 | 3.2 | 11.3 | 0.00 | 0.00 | 0.00 | 57 | 1010.7 |
| 20260905184541 | 24 | 349 | 1.6 | 8.0 | 0.00 | 0.00 | 0.00 | 58 | 1010.8 |
| 20260905183039 | 23 | 139 | 3.2 | 11.3 | 0.00 | 0.00 | 0.00 | 59 | 1010.8 |
| 20260905181523 | 24 | 42 | 1.6 | 11.3 | 0.00 | 0.00 | 0.00 | 58 | 1010.7 |
| 20260905180011 | 24 | 342 | 6.4 | 14.5 | 0.00 | 0.00 | 0.00 | 58 | 1010.8 |
| 20260905174517 | 25 | 354 | 6.4 | 16.1 | 0.00 | 0.00 | 0.00 | 54 | 1010.8 |
| 20260905173020 | 25 | 303 | 4.8 | 16.1 | 0.00 | 0.00 | 0.00 | 57 | 1010.8 |
| 20260905171525 | 24 | 341 | 3.2 | 14.5 | 0.00 | 0.00 | 0.00 | 54 | 1010.8 |
| 20260905170025 | 23 | 65 | 3.2 | 16.1 | 0.00 | 0.00 | 0.00 | 56 | 1010.9 |
| 20260905164528 | 23 | 7 | 11.3 | 17.7 | 0.00 | 0.00 | 0.00 | 57 | 1010.8 |
| 20260905163018 | 23 | 355 | 6.4 | 14.5 | 0.00 | 0.00 | 0.00 | 60 | 1010.9 |
| 20260905161524 | 23 | 347 | 4.8 | 17.7 | 0.00 | 0.00 | 0.00 | 62 | 1010.9 |
| 20260905160029 | 23 | 76 | 4.8 | 14.5 | 0.00 | 0.00 | 0.00 | 60 | 1011.0 |
| 20260905154535 | 23 | 18 | 8.0 | 25.7 | 0.00 | 0.00 | 0.00 | 62 | 1011.1 |
| 20260905153014 | 22 | 273 | 3.2 | 17.7 | 0.00 | 0.00 | 0.00 | 67 | 1011.2 |
| 20260905151530 | 22 | 316 | 4.8 | 17.7 | 0.00 | 0.00 | 0.00 | 70 | 1011.1 |
| 20260905150024 | 22 | 46 | 6.4 | 19.3 | 0.00 | 0.00 | 0.00 | 66 | 1011.0 |
| 20260905144507 | 21 | 121 | 4.8 | 24.1 | 0.00 | 0.00 | 0.00 | 69 | 1011.2 |
| 20260905143009 | 21 | 304 | 6.4 | 19.3 | 0.00 | 0.00 | 0.00 | 70 | 1011.4 |
| 20260905141516 | 21 | 34 | 6.4 | 17.7 | 0.00 | 0.00 | 0.00 | 70 | 1011.4 |
| 20260905140026 | 21 | 321 | 4.8 | 24.1 | 0.00 | 0.00 | 0.00 | 71 | 1011.4 |
| 20260905134526 | 20 | 342 | 4.8 | 22.5 | 0.00 | 0.03 | 0.00 | 73 | 1011.5 |
| 20260905133009 | 20 | 81 | 4.8 | 14.5 | 0.00 | 0.03 | 0.00 | 77 | 1011.4 |
| 20260905131511 | 19 | 286 | 4.8 | 9.7 | 0.00 | 0.03 | 0.00 | 80 | 1011.6 |
| 20260905130018 | 18 | 273 | 1.6 | 4.8 | 0.00 | 0.03 | 0.00 | 82 | 1011.8 |
| 20260905124525 | 18 | 321 | 3.2 | 4.8 | 0.00 | 0.03 | 0.00 | 83 | 1011.7 |
| 20260905123026 | 17 | 321 | 1.6 | 3.2 | 0.00 | 0.03 | 0.00 | 87 | 1011.5 |
| 20260905121508 | 17 | 307 | 0.0 | 3.2 | 0.00 | 0.03 | 0.00 | 87 | 1011.4 |
| 20260905120016 | 17 | 41 | 0.0 | 0.0 | 0.00 | 0.03 | 0.00 | 86 | 1011.2 |
| 20260905114518 | 16 | 344 | 0.0 | 3.2 | 0.00 | 0.03 | 0.00 | 93 | 1011.0 |
| 20260905113024 | 15 | 113 | 0.0 | 3.2 | 0.00 | 0.03 | 0.00 | 94 | 1011.0 |
| 20260905111546 | 14 | 124 | 0.0 | 0.0 | 0.00 | 0.03 | 0.00 | 95 | 1010.9 |
| 20260905110038 | 13 | 124 | 0.0 | 0.0 | 0.00 | 0.03 | 0.00 | 96 | 1010.6 |
| 20260905104515 | 13 | 124 | 0.0 | 1.6 | 0.00 | 0.03 | 0.00 | 96 | 1010.6 |
| 20260905103020 | 13 | 223 | 0.0 | 1.6 | 0.00 | 0.03 | 0.00 | 96 | 1010.6 |
| 20260905101545 | 13 | 123 | 0.0 | 1.6 | 0.00 | 0.03 | 0.00 | 96 | 1010.6 |
| 20260905100030 | 13 | 122 | 0.0 | 0.0 | 0.00 | 0.03 | 0.00 | 96 | 1010.5 |
| 20260905094531 | 13 | 122 | 0.0 | 0.0 | 0.00 | 0.03 | 0.00 | 95 | 1010.5 |
| 20260905093016 | 13 | 122 | 0.0 | 1.6 | 0.00 | 0.03 | 0.00 | 95 | 1010.4 |
| 20260905091521 | 14 | 123 | 0.0 | 0.0 | 0.00 | 0.03 | 0.00 | 96 | 1010.4 |
| 20260905090028 | 14 | 123 | 0.0 | 1.6 | 0.00 | 0.03 | 0.00 | 95 | 1010.3 |
| 20260905084531 | 14 | 123 | 0.0 | 0.0 | 0.00 | 0.03 | 0.00 | 95 | 1010.1 |
| 20260905083032 | 14 | 123 | 0.0 | 0.0 | 0.00 | 0.03 | 0.00 | 95 | 1010.2 |
| 20260905081517 | 14 | 123 | 0.0 | 1.6 | 0.00 | 0.03 | 0.00 | 95 | 1010.2 |
| 20260905080036 | 14 | 123 | 0.0 | 1.6 | 0.00 | 0.03 | 0.00 | 95 | 1010.3 |
| 20260905074527 | 14 | 124 | 0.0 | 1.6 | 0.00 | 0.03 | 0.00 | 95 | 1010.4 |
| 20260905073029 | 15 | 124 | 0.0 | 1.6 | 0.00 | 0.03 | 0.00 | 94 | 1010.5 |
| 20260905071533 | 15 | 124 | 0.0 | 1.6 | 0.00 | 0.03 | 0.00 | 94 | 1010.6 |
| 20260905070019 | 15 | 129 | 0.0 | 0.0 | 0.00 | 0.03 | 0.00 | 94 | 1010.6 |
| 20260905064526 | 15 | 129 | 0.0 | 1.6 | 0.00 | 0.03 | 0.00 | 94 | 1010.7 |
| 20260905063027 | 15 | 131 | 0.0 | 0.0 | 0.00 | 0.03 | 0.00 | 93 | 1010.7 |
| 20260905061513 | 15 | 131 | 0.0 | 0.0 | 0.00 | 0.03 | 0.00 | 93 | 1010.7 |
| 20260905060025 | 16 | 131 | 0.0 | 1.6 | 0.00 | 0.03 | 0.00 | 93 | 1011.0 |
| 20260905054522 | 16 | 134 | 0.0 | 0.0 | 0.00 | 0.03 | 0.00 | 93 | 1010.9 |
| 20260905053027 | 16 | 134 | 0.0 | 0.0 | 0.00 | 0.03 | 0.00 | 92 | 1011.1 |
| 20260905051541 | 16 | 134 | 0.0 | 1.6 | 0.00 | 0.03 | 0.00 | 92 | 1011.1 |
| 20260905050015 | 16 | 160 | 0.0 | 1.6 | 0.00 | 0.03 | 0.00 | 91 | 1011.2 |
| 20260905044518 | 16 | 20 | 0.0 | 0.0 | 0.00 | 0.03 | 0.00 | 90 | 1011.3 |
| 20260905043025 | 17 | 20 | 0.0 | 0.0 | 0.00 | 0.03 | 0.00 | 90 | 1011.1 |